Regional Weather Roundup
Issued by NWS

Home | Current Version | Previous Version | Graphics & Text | Print | Product List | Glossary On
Versions: 1 2 3 4 5 6 7 8 9 10 11 12 13 14 15 16 17 18 19 20 21 22 23 24 25 26 27
000
ASUS45 KCYS 192010
RWRWY

WYOMING REGIONAL WEATHER ROUNDUP
NATIONAL WEATHER SERVICE CHEYENNE WY
100 PM MST FRI JAN 19 2018

NOTE:  "FAIR" INDICATES FEW OR NO CLOUDS BELOW 12,000 FEET
WITH NO SIGNIFICANT WEATHER AND/OR OBSTRUCTIONS TO VISIBILITY.

WYZ001-192100-
YELLOWSTONE NATIONAL PARK

CITY           SKY/WX    TMP DP  RH WIND       PRES   REMARKS
LK YELLOWSTONE   N/A     27  25  92 VRB6      29.73F WCI  20
W YELLOWSTONE  NOT AVBL

$$
WYZ002>013-054>058-071-098>099-192100-
NORTHERN WYOMING

CITY           SKY/WX    TMP DP  RH WIND       PRES   REMARKS
JACKSON        FLURRIES  34  28  80 S15       29.76F WCI  24
CODY           CLOUDY    37  33  85 CALM      29.69S
GREYBULL       PTSUNNY   38  30  73 CALM      29.67F
WORLAND        FAIR      39  31  72 CALM      29.67F
SHERIDAN       CLOUDY    40  36  86 CALM      29.68F
BUFFALO        FAIR      40  32  73 SE8       29.68F WCI  34
GILLETTE       FAIR      43  32  65 VRB5      29.70F
HULETT         FAIR      41  32  70 W6        29.70F
NEWCASTLE      FAIR      37  30  75 NW9       29.69S WCI  31

$$
WYZ014>020-022>026-101>103-192100-
CENTRAL WYOMING

CITY           SKY/WX    TMP DP  RH WIND       PRES   REMARKS
BIG PINEY      PTSUNNY   45  31  58 W17G23    29.76F
PINEDALE       MOCLDY    39  30  70 NW15      29.75F WCI  31
DUBOIS         CLOUDY    34  27  75 NW17G24   29.70S HAZE    WCI  23
LANDER         PTSUNNY   51  30  44 SW14G25   29.63F
RIVERTON       FAIR      45  28  51 S23       29.63F
CASPER         FAIR      50  23  34 SW31G38   29.66F
DOUGLAS        FAIR      56  26  31 W24G30    29.66F

$$
WYZ021-027>030-104>119-192100-
SOUTHERN WYOMING

CITY           SKY/WX    TMP DP  RH WIND       PRES   REMARKS
EVANSTON       CLOUDY    43  29  57 SW14      29.79F
ROCK SPRINGS   FAIR      49  21  33 SW16      29.75F
DIXON            N/A     50  19  29 SW20G33   29.86F
RAWLINS        FAIR      45  19  35 SW28G33   29.78F
SARATOGA       FAIR      50  19  29 SW31G41   29.80F
LARAMIE        FAIR      56  19  23 SW33G41   29.77F
CHEYENNE       FAIR      60  19  20 W22G31    29.75F
TORRINGTON     FAIR      46  28  49 N5        29.66F

$$




USA.gov is the U.S. government's official web portal to all federal, state and local government web resources and services.